SCP
0 0 0 0 0 0 0 0 0 0 0 0 0 0 0 0 0 0 0 0 0 0 0 -0 -0 -0 -0 -0 -0 -0 -0 0 0 0 0 0 0 0 0 0 0 0 0 0 0 0 0 -0 0 0 0 0 1 0
0 0 0 0 0 0 0 0 0 0 0 0 0 0 0 0 0 0 0 0 0 0 0 -0 -0 -0 -0 -0 -0 0 0 0 0 0 0 0 0 0 0 0 0 0 0 0 0 0 0 0 0 0 0 0 0 0
0 0 0 0 0 0 0 0 0 0 0 0 0 0 0 0 0 0 0 0 0 0 -0 -0 -0 -0 0 -0 -0 -0 0 0 0 0 0 0 0 0 0 -0 0 0 0 0 0 0 -0 0 0 -0 -0 -0 0 0
0 0 0 0 0 0 0 0 0 0 0 0 0 0 0 0 0 0 0 0 0 0 0 -0 0 0 0 0 -0 -0 -0 0 0 0 0 0 0 0 0 -0 0 0 0 0 0 0 0 0 0 0 -0 -0 -0 -0
0 0 0 0 0 0 0 0 0 0 0 0 0 0 0 0 0 0 0 0 0 0 0 -0 -0 -0 0 -0 -0 -0 -0 0 0 0 0 0 0 0 0 0 0 0 0 0 0 -0 0 0 0 0 0 0 -0 -0
0 0 0 0 0 0 0 0 0 0 0 0 0 0 0 0 0 0 0 0 0 0 0 0 0 -0 -0 0 -0 -0 -0 0 0 0 0 0 0 0 0 0 0 0 -0 0 0 0 0 -0 -0 -0 -0 0 0 0
0 0 0 0 0 0 0 0 0 0 0 0 0 0 0 0 0 0 0 0 -0 0 0 0 0 -0 -0 0 0 -0 -0 -0 -0 0 0 0 0 0 -0 0 0 0 -0 -0 0 0 -0 -0 -0 -0 -0 -0 -0 -0
0 0 0 0 0 0 0 0 0 -0 -0 0 0 0 0 -0 0 0 -0 -0 -0 -0 0 0 -0 -0 -0 0 0 -0 -0 -0 0 0 0 0 0 0 0 0 0 0 -0 0 -0 -0 -0 -0 -0 -0 -0 0 0 0
0 0 0 0 0 0 0 0 -0 -0 0 0 0 -0 0 0 0 0 0 -0 0 0 -0 0 -0 -0 -0 0 0 0 0 -0 0 0 0 0 0 0 0 0 0 0 -0 -0 -0 -0 -0 -0 -0 -0 -0 -0 -0 -0
0 0 0 0 0 0 0 0 -0 -0 0 0 0 0 0 0 0 -0 0 -0 -0 -0 -0 0 0 -0 -0 0 0 0 0 0 0 0 0 0 0 0 0 0 0 0 0 -0 -0 -0 -0 -0 -0 -0 -0 -0 -0 0
0 0 0 0 0 0 0 0 -0 -0 0 0 0 0 0 -0 0 0 0 -0 -0 -0 -0 -0 -0 -0 0 0 0 0 0 0 0 0 0 0 0 0 0 0 0 0 -0 -0 -0 -0 -0 -0 -0 0 0 0 0 0
0 0 0 0 0 0 0 0 -0 0 0 0 0 0 0 0 0 0 0 -0 -0 -0 -0 0 -0 0 0 0 0 0 0 0 0 -0 0 0 0 0 0 0 0 0 -0 -0 -0 0 0 0 0 0 0 0 0 0
0 0 0 0 0 0 0 0 0 0 0 0 0 0 0 0 0 0 0 0 0 -0 -0 -0 0 0 0 0 0 0 0 0 0 0 0 0 0 0 -0 -0 -0 -0 -0 0 0 0 0 0 0 0 0 0 0 0
0 0 0 0 0 0 0 0 0 0 0 0 0 0 0 0 0 -0 -0 0 0 0 0 -0 -0 0 0 0 0 0 0 0 0 0 0 -0 -0 -0 -0 0 0 0 0 0 0 0 0 0 0 0 0 0 0 0
0 0 -0 -0 0 0 0 0 0 0 0 0 0 0 0 -0 -0 -0 0 0 0 0 -0 -0 -0 0 0 0 0 0 0 0 0 0 0 0 -0 0 0 0 0 0 0 0 0 0 0 0 0 0 0 0 0 0
0 -0 0 0 0 0 0 0 0 0 0 0 0 0 -0 -0 -0 0 0 0 0 0 0 -0 -0 0 -0 0 0 0 0 0 0 0 0 0 0 0 0 0 0 0 0 0 0 0 0 0 0 0 0 0 0 0
0 0 0 0 0 0 0 0 0 0 0 0 0 0 -0 -0 -0 0 0 0 0 0 0 0 0 0 0 0 0 0 0 0 0 0 0 0 0 0 0 0 0 0 0 0 0 0 0 0 0 0 0 0 0 0
0 0 0 0 0 0 0 0 0 0 0 0 0 0 0 0 0 0 0 0 0 0 0 0 0 0 0 0 0 0 0 0 0 0 0 0 -0 0 0 0 0 0 0 0 0 0 0 0 0 0 0 0 0 0
0 0 0 0 0 0 0 0 0 0 0 0 0 0 0 0 0 0 0 0 0 0 0 -0 -0 0 0 0 0 0 0 0 0 -0 -0 -0 0 0 0 0 0 0 0 0 0 0 0 0 0 0 0 0 0 0
0 -0 0 0 0 0 0 0 0 0 0 0 0 0 0 0 -0 0 0 0 0 0 0 -0 -0 0 0 0 0 0 0 0 -0 -0 0 0 0 0 0 0 0 0 0 0 0 0 0 0 0 0 0 0 0 -0
0 0 0 0 0 0 0 0 0 0 0 0 0 0 0 0 0 0 0 0 0 0 0 0 -0 0 0 0 0 -0 0 0 0 0 0 0 0 0 0 0 0 0 0 0 0 0 0 0 0 -0 -0 -0 -0 -0
0 0 0 0 0 0 0 0 0 0 0 0 0 0 0 0 0 0 0 0 0 0 0 0 0 0 0 0 -0 0 -0 -0 -0 -0 -0 -0 0 0 0 0 0 0 0 0 0 0 0 0 -0 -0 -0 0 0 0
0 0 0 0 0 0 0 0 0 0 0 0 0 0 -0 0 0 0 0 0 0 0 0 0 0 0 0 0 -0 -0 -0 -0 -0 0 0 0 0 0 0 0 0 0 0 0 0 0 0 -0 0 0 -0 -0 0 0
0 0 0 0 0 0 0 0 0 0 0 0 0 0 0 0 0 0 0 0 0 0 0 0 0 0 0 0 0 0 -0 0 -0 -0 0 0 0 0 0 0 0 0 0 0 0 0 0 0 0 -0 -0 -0 -0 0
0 0 0 0 0 0 0 0 0 0 0 0 0 0 0 0 0 0 0 0 0 0 0 0 0 0 0 0 0 -0 -0 -0 -0 -0 -0 0 0 0 0 0 0 0 0 0 0 0 0 0 -0 -0 -0 0 -0 -0
0 -0 0 0 0 0 0 0 0 0 0 0 0 0 0 0 0 0 0 0 0 0 0 0 0 0 0 0 0 -0 0 0 0 -0 -0 -0 0 0 0 0 0 0 0 0 0 0 0 0 0 -0 -0 -0 -0 -0
0 0 0 0 0 0 0 0 0 0 0 0 0 0 0 0 0 0 0 0 -0 0 0 0 0 0 0 0 0 0 -0 0 -0 -0 -0 -0 -0 0 0 0 0 0 0 0 0 0 0 0 0 0 0 0 0 -0
0 0 0 0 0 0 0 0 0 0 0 0 0 0 0 0 0 0 0 0 0 -0 -0 0 0 0 0 0 0 0 0 0 -0 0 0 -0 -0 0 0 0 0 0 0 0 0 0 0 0 0 0 0 0 0 0
0 0 0 0 0 0 0 0 0 0 0 0 0 0 0 0 0 0 0 0 0 -0 0 0 -0 0 0 0 0 0 0 0 0 -0 -0 -0 0 0 0 0 0 0 0 0 0 0 0 0 0 0 0 0 0 0
0 0 0 0 0 0 0 0 0 0 0 0 0 0 0 0 0 0 0 0 0 0 0 0 0 0 0 0 0 0 0 0 0 0 0 0 0 0 0 0 0 0 0 0 0 0 0 0 0 -0 -0 -0 0 0
0 0 0 0 0 0 0 0 0 -0 0 0 0 0 0 0 0 0 0 0 0 0 0 0 0 0 0 0 0 0 0 0 0 0 0 0 0 0 0 0 0 0 0 0 0 -0 -0 -0 -0 -0 -0 -0 -0 -0
0 0 0 0 0 0 0 -0 0 -0 0 0 0 0 0 0 0 0 0 0 0 0 0 0 0 0 0 0 0 0 0 0 0 0 0 0 0 0 0 0 0 0 0 0 0 0 -0 -0 -0 -0 -0 -0 -0 -0
0 0 0 0 0 0 0 0 0 0 0 0 0 0 0 0 0 0 0 0 0 0 0 0 0 0 0 0 0 0 0 0 0 0 0 0 0 0 0 0 0 0 0 0 0 0 0 -0 0 -0 -0 -0 -0 -0
Wind_Speed_500mb
54 53 49 48 45 44 44 47 48 38 36 32 37 35 35 29 22 25 35 29 36 38 66 60 40 43 41 50 20 41 25 8 6 6 6 7 7 7 7 11 4 6 7 7 7 6 3 37 19 10 14 22 20 73
53 51 49 46 39 42 43 45 45 39 34 36 36 39 32 32 30 27 36 25 34 36 61 80 73 63 59 55 49 15 15 26 9 6 5 10 7 7 12 3 5 2 6 4 8 5 19 28 18 26 24 23 39 55
50 51 49 43 42 42 41 45 41 37 35 38 39 34 34 34 31 29 37 40 39 37 62 35 39 19 20 26 32 19 17 12 10 10 7 6 9 5 5 9 4 5 5 6 4 13 25 31 35 49 53 64 61 55
51 48 44 39 40 40 42 40 35 33 36 38 38 36 36 35 30 31 39 36 38 22 12 26 31 53 43 39 40 51 51 32 23 24 11 6 7 8 7 9 5 4 7 6 7 6 21 35 39 47 58 68 68 61
50 46 38 36 39 38 40 33 33 35 40 40 39 40 37 35 32 27 39 40 39 31 12 40 69 22 18 18 22 30 38 44 20 6 7 6 8 9 10 10 9 19 7 4 6 29 21 25 59 76 75 70 72 79
43 38 34 33 37 37 30 30 35 39 41 41 39 38 35 26 17 23 14 3 2 4 13 9 29 15 22 25 28 34 34 26 14 10 8 11 19 7 2 7 22 49 54 35 17 43 43 53 56 55 62 65 65 69
36 30 31 35 37 29 27 32 37 42 40 38 34 27 21 19 18 24 11 5 18 23 9 12 13 8 28 22 12 15 12 9 13 4 7 10 11 3 9 6 26 33 39 39 37 34 36 42 45 54 57 51 49 47
32 29 36 34 28 26 29 33 38 40 38 35 30 25 22 19 28 32 22 19 24 26 10 7 11 17 17 16 12 6 4 14 7 7 11 7 11 15 8 10 24 25 29 29 44 41 47 46 46 44 42 40 40 38
31 33 33 27 25 29 32 34 37 39 33 29 21 15 12 10 9 7 7 15 17 11 9 5 8 10 32 25 16 7 7 4 2 6 4 7 10 11 15 20 6 12 30 35 36 37 37 39 38 34 32 30 29 25
31 30 27 24 26 29 29 32 35 30 26 16 11 6 5 2 11 16 7 8 13 9 11 7 8 8 17 19 8 11 9 3 2 2 8 10 7 23 27 26 30 27 27 28 31 29 28 30 28 27 27 23 20 16
30 26 23 25 25 26 28 28 25 22 14 12 9 7 18 25 9 8 7 11 16 10 11 10 12 8 9 6 7 8 6 5 6 3 9 3 7 15 23 27 25 21 24 27 28 28 26 23 21 19 18 16 13 11
24 21 22 24 24 24 24 20 8 14 15 16 22 25 17 7 9 9 7 7 10 5 10 8 9 12 9 7 7 9 6 5 1 9 4 7 10 25 26 27 28 27 27 27 26 26 24 22 19 17 14 13 11 9
20 21 22 23 21 18 10 11 12 16 23 13 6 6 7 8 5 10 10 7 4 2 5 13 12 5 5 11 12 8 5 3 3 4 5 6 29 31 29 29 27 25 25 25 24 21 20 19 18 15 11 11 8 8
18 19 20 20 20 15 12 14 12 15 6 5 8 8 9 8 9 7 5 5 9 16 21 24 16 6 10 7 9 7 1 4 5 3 6 18 36 34 32 29 29 25 23 21 18 15 14 14 15 15 14 10 7 7
15 15 15 11 3 7 13 17 17 8 5 7 8 9 10 13 11 11 15 17 15 20 21 17 12 12 8 9 6 8 5 6 6 5 8 33 36 34 34 30 27 23 19 16 14 13 14 13 11 11 12 10 8 12
10 11 8 11 17 17 17 18 10 10 7 9 13 14 19 10 16 18 16 12 7 13 16 11 7 5 10 6 7 7 4 6 6 8 34 41 37 34 32 27 23 20 17 15 13 12 12 11 10 9 10 9 9 11
7 5 17 24 19 17 15 6 8 10 11 9 16 22 25 19 20 23 13 10 6 9 6 7 6 3 12 7 3 6 5 8 14 21 30 34 39 35 30 27 24 20 18 15 12 12 13 12 11 9 8 7 8 10
4 14 25 27 18 11 5 11 8 11 17 26 20 27 21 22 20 20 19 11 3 2 5 4 11 7 5 8 5 8 9 14 22 34 39 39 36 32 27 26 23 19 17 13 10 10 10 8 7 6 4 5 6 8
17 25 23 15 10 4 6 9 12 10 16 20 15 24 20 24 21 19 16 10 10 10 4 5 6 5 7 7 10 13 8 16 25 31 32 34 32 27 26 24 20 18 15 10 7 6 9 9 6 4 4 4 6 7
10 11 7 10 8 6 7 9 12 11 10 9 16 25 24 19 16 15 19 21 22 10 11 7 6 9 7 9 2 3 10 19 26 30 31 31 28 26 24 20 16 18 16 14 8 9 6 6 7 7 7 7 10 11
12 10 8 10 11 13 10 8 11 14 16 15 17 16 19 12 16 10 13 17 16 4 5 10 10 21 14 12 10 9 17 23 17 19 25 28 25 24 22 18 18 16 11 12 18 8 7 8 8 8 11 12 12 12
9 10 7 10 9 9 12 16 13 13 11 20 24 20 9 9 14 14 12 18 7 8 7 8 9 11 11 7 17 15 24 20 17 21 21 23 25 22 21 17 17 15 9 6 8 11 10 10 11 14 14 17 17 19
8 8 7 8 9 8 13 12 12 9 7 8 9 7 6 10 12 14 1 6 2 4 6 10 10 7 11 17 20 19 16 16 17 19 20 19 19 18 18 17 16 15 12 8 9 10 15 12 14 16 16 18 15 17
7 5 6 7 13 9 7 8 12 9 10 11 7 9 9 8 5 5 2 4 4 6 9 11 7 14 17 16 17 16 16 16 17 18 15 17 18 16 16 17 16 15 13 12 13 12 16 15 14 15 16 17 15 12
5 8 7 10 11 9 7 8 11 8 9 9 8 10 4 7 4 2 4 4 13 16 14 10 4 12 12 12 22 19 13 15 17 18 16 16 19 20 19 18 17 17 17 22 16 17 17 17 16 15 16 16 16 14
8 12 12 10 7 10 7 6 5 8 8 8 11 7 3 6 6 3 5 10 12 16 18 10 5 6 15 18 17 14 12 11 14 14 14 17 20 21 21 20 18 17 21 18 21 23 23 21 19 20 18 17 20 18
7 10 16 16 11 13 9 13 21 11 10 7 4 3 4 5 6 7 15 12 9 11 25 12 8 10 15 14 13 12 11 15 13 14 14 16 17 18 18 18 16 13 22 27 24 26 28 27 25 22 18 18 19 18
12 9 15 11 15 14 13 9 7 6 4 5 5 7 6 8 6 6 6 7 8 12 20 18 6 9 8 14 14 7 9 11 12 16 17 17 16 15 13 11 13 16 14 21 23 26 29 29 28 27 25 22 21 20
11 13 14 16 17 11 10 8 5 6 8 9 5 5 5 7 13 9 5 7 10 15 17 13 25 17 19 29 23 12 12 9 7 17 27 26 21 15 14 13 9 10 15 18 25 26 29 29 28 29 28 25 22 22
15 19 11 13 12 11 13 5 6 6 6 4 2 2 11 13 8 8 8 9 10 12 14 16 16 15 16 12 17 16 11 6 6 8 21 20 14 10 7 7 7 8 12 18 21 26 33 32 32 30 30 27 26 26
3 9 15 17 20 14 4 6 9 6 12 12 11 12 12 13 10 9 13 13 10 10 10 10 11 12 11 12 10 6 5 4 8 10 8 11 9 6 6 1 9 11 10 17 22 24 30 34 32 32 33 32 30 29
17 18 13 9 8 4 5 5 8 5 3 9 13 20 24 22 11 9 5 4 2 3 5 6 7 8 6 6 5 4 5 4 7 9 7 6 11 12 7 3 8 16 19 17 25 28 31 33 32 34 33 35 33 33
18 17 17 12 11 9 12 13 9 9 6 7 13 15 10 8 7 6 5 7 10 4 3 2 2 5 12 12 9 7 8 6 16 18 22 22 20 17 18 19 17 14 18 20 21 30 34 37 35 33 34 34 35 34
Wind_Direction_500mb
306 308 308 303 307 311 312 314 314 311 309 309 311 315 314 311 303 291 290 285 271 269 283 287 284 271 282 283 280 285 322 43 292 289 293 336 278 279 1 34 17 174 200 207 213 250 232 349 331 337 354 315 289 136
305 306 306 306 304 308 311 314 314 310 305 308 312 312 313 307 299 281 286 289 290 274 271 290 290 274 267 268 271 278 244 302 283 289 323 305 295 300 321 53 345 240 340 64 24 17 311 322 314 19 37 45 79 111
304 303 305 304 302 305 309 314 311 308 306 312 314 315 313 315 307 271 284 292 297 291 300 284 296 291 275 265 256 242 265 228 228 254 311 287 282 285 321 38 37 17 69 80 166 342 16 19 48 56 65 70 86 100
303 301 300 300 303 303 307 308 307 308 310 309 312 312 308 307 302 284 285 286 282 280 282 292 294 298 290 273 257 248 256 251 264 293 236 267 274 278 338 107 29 4 51 105 89 241 1 42 70 78 74 83 91 91
302 298 296 297 305 308 307 303 309 310 309 312 311 307 306 303 302 296 287 277 268 250 284 298 308 332 287 282 268 262 259 254 242 263 237 248 263 276 329 55 4 342 332 73 86 72 80 74 76 80 82 84 91 102
298 296 292 299 298 302 300 303 310 311 311 313 313 309 307 305 304 319 312 74 357 319 287 294 314 303 310 298 281 269 258 244 221 232 248 254 250 237 344 62 6 77 72 94 90 94 79 92 85 88 89 88 90 93
296 293 293 295 298 294 298 308 311 312 315 315 315 309 301 288 271 255 247 259 314 308 285 289 282 303 310 310 294 262 235 200 232 258 257 267 289 189 43 45 77 71 96 107 96 100 101 89 92 92 93 96 94 92
284 290 292 295 288 292 304 307 309 312 317 316 313 305 295 271 265 264 274 269 258 264 259 275 285 298 341 321 318 274 216 162 18 281 264 279 324 90 84 86 104 104 82 80 104 96 96 98 95 93 94 96 94 94
279 282 287 285 285 296 303 309 311 316 321 319 317 307 289 240 229 260 284 290 286 228 270 256 306 319 339 322 308 319 307 95 287 254 359 345 33 47 135 120 87 72 107 107 102 100 97 90 88 85 85 85 85 82
273 281 280 278 290 297 308 311 315 326 334 346 352 290 269 225 282 295 270 211 212 224 233 261 266 271 322 327 299 2 288 175 255 2 26 90 68 74 82 93 103 102 105 111 109 100 92 85 82 75 69 67 67 65
275 271 273 285 295 304 308 313 321 343 18 350 321 301 304 288 268 230 225 222 187 209 210 242 248 247 278 275 312 302 295 281 167 218 144 97 118 112 108 106 100 91 92 88 89 88 86 87 85 79 69 61 52 44
258 264 277 289 298 304 309 314 321 350 319 306 294 294 293 278 229 242 230 232 221 198 189 229 281 229 255 253 272 273 261 241 99 173 211 107 131 134 127 117 109 104 101 96 92 89 83 75 66 60 52 46 39 38
257 273 283 291 296 299 315 295 298 317 329 295 294 259 239 234 246 231 208 217 218 248 182 311 326 277 248 233 249 264 260 313 282 212 99 114 144 139 132 128 118 112 107 102 96 87 75 60 51 52 41 31 18 2
263 276 285 293 290 284 272 284 309 331 3 264 255 242 236 207 240 243 271 288 304 329 323 315 309 226 245 247 237 264 168 237 237 153 76 136 155 145 143 137 130 124 120 111 100 86 68 57 49 48 43 23 18 36
274 285 300 309 306 239 279 286 286 306 279 259 254 248 235 242 281 300 315 308 301 312 320 310 285 245 260 257 246 283 235 212 55 68 113 137 142 151 145 145 136 128 118 104 88 64 44 32 31 25 23 24 32 14
282 310 277 273 288 284 292 312 291 209 245 240 237 258 266 262 274 274 281 295 317 322 306 265 271 238 252 240 241 252 301 40 72 85 115 134 147 148 146 139 137 132 124 113 97 69 50 47 49 50 38 50 56 43
295 236 270 305 315 315 303 280 199 215 245 224 236 240 266 265 269 279 287 308 323 331 311 334 260 255 291 259 233 16 26 77 92 116 130 143 149 149 144 141 137 131 122 106 85 62 49 43 35 22 34 56 53 44
224 279 291 297 308 323 267 202 229 239 233 239 252 250 235 249 256 265 277 277 301 298 352 304 313 284 276 296 24 34 44 75 84 111 129 142 146 143 141 141 140 130 122 117 90 59 47 35 34 21 67 78 78 69
238 243 270 265 277 271 244 223 215 253 256 266 252 267 259 263 252 253 261 245 238 212 211 216 257 257 286 13 23 49 22 108 120 126 134 141 142 142 143 140 137 140 135 119 67 78 86 50 50 70 95 106 109 97
281 299 267 223 217 237 250 238 229 252 270 265 267 247 252 257 249 253 255 256 231 204 204 227 238 277 296 266 5 102 153 142 134 138 141 149 151 148 146 148 153 158 154 135 111 93 84 84 60 82 107 112 122 117
321 269 272 250 218 230 267 270 247 255 282 270 268 264 257 280 270 264 256 215 207 243 258 237 271 291 293 236 253 202 173 149 153 152 159 163 167 162 164 160 162 164 171 156 137 102 116 87 104 120 107 110 118 131
254 264 241 236 227 241 251 239 250 289 276 262 268 257 263 279 270 208 206 204 206 232 259 275 296 305 309 154 144 149 130 135 135 136 137 146 160 162 171 165 169 169 174 141 104 115 123 104 105 115 110 109 111 111
251 219 233 226 230 239 261 227 246 232 246 245 234 225 136 248 195 160 122 7 192 246 254 302 286 283 131 122 120 131 132 124 124 133 145 152 154 164 162 167 170 164 150 138 115 108 138 130 119 117 121 111 109 110
206 233 234 229 212 262 255 230 232 243 263 258 237 239 204 195 99 52 87 246 190 228 264 324 232 171 158 148 128 135 126 135 148 143 146 149 146 153 161 164 164 163 151 155 146 136 141 141 143 141 126 130 125 121
244 216 212 241 230 242 237 248 223 230 247 237 242 251 155 145 99 244 154 99 57 26 13 353 320 204 195 163 155 141 129 160 161 159 153 155 152 152 155 159 163 171 171 163 167 157 146 160 147 150 160 152 146 146
243 209 202 218 222 225 235 261 242 247 287 264 224 235 149 167 153 193 80 88 71 42 18 354 319 323 203 173 159 161 161 156 147 151 162 165 164 165 165 169 175 184 193 179 175 176 172 160 154 162 165 165 166 160
251 239 216 232 246 274 268 263 249 247 240 256 322 269 236 186 117 63 109 94 109 52 20 53 117 114 145 132 142 147 174 173 181 179 163 167 163 169 172 178 191 198 194 193 193 190 186 185 185 182 177 178 177 171
245 275 249 253 218 254 269 276 260 246 280 0 329 17 33 28 62 57 62 64 118 102 65 53 103 113 163 158 112 93 168 175 163 164 160 161 169 173 171 168 168 184 193 192 197 196 194 191 189 187 186 187 187 181
234 233 238 250 228 237 240 245 273 36 27 20 17 47 69 86 99 74 59 63 88 131 87 76 72 99 90 77 97 96 83 93 172 191 190 180 174 171 193 204 210 197 196 204 195 192 196 193 193 192 187 185 185 181
242 208 225 242 213 239 237 298 324 339 305 337 324 297 109 111 101 100 100 92 96 95 85 80 73 73 69 83 78 64 62 70 164 192 139 129 143 151 160 176 192 206 199 199 191 191 197 191 193 192 190 190 190 188
223 239 243 245 249 247 240 308 304 276 265 260 223 191 149 142 123 95 105 96 101 107 99 87 77 75 75 68 67 102 98 76 88 107 125 151 98 82 41 213 225 220 215 203 199 198 192 189 195 196 199 200 203 201
204 207 230 254 263 234 199 19 340 348 24 154 171 168 167 158 135 134 109 82 124 112 85 56 47 45 37 47 44 52 77 356 298 250 232 262 251 229 232 307 312 225 211 221 213 211 206 198 202 203 206 207 209 211
201 229 242 271 254 235 197 196 217 194 197 143 138 145 137 142 116 168 149 133 137 106 93 18 357 318 293 273 282 302 293 294 281 263 252 251 251 250 247 247 246 232 222 214 227 222 216 213 213 213 214 214 213 214
Wind_Speed_850mb
54 53 49 48 45 44 44 47 48 38 36 32 37 35 35 29 22 25 35 29 36 38 66 60 40 43 41 50 20 41 25 8 6 6 6 7 7 7 7 11 4 6 7 7 7 6 3 37 19 10 14 22 20 73
53 51 49 46 39 42 43 45 45 39 34 36 36 39 32 32 30 27 36 25 34 36 61 80 73 63 59 55 49 15 15 26 9 6 5 10 7 7 12 3 5 2 6 4 8 5 19 28 18 26 24 23 39 55
50 51 49 43 42 42 41 45 41 37 35 38 39 34 34 34 31 29 37 40 39 37 62 35 39 19 20 26 32 19 17 12 10 10 7 6 9 5 5 9 4 5 5 6 4 13 25 31 35 49 53 64 61 55
51 48 44 39 40 40 42 40 35 33 36 38 38 36 36 35 30 31 39 36 38 22 12 26 31 53 43 39 40 51 51 32 23 24 11 6 7 8 7 9 5 4 7 6 7 6 21 35 39 47 58 68 68 61
50 46 38 36 39 38 40 33 33 35 40 40 39 40 37 35 32 27 39 40 39 31 12 40 69 22 18 18 22 30 38 44 20 6 7 6 8 9 10 10 9 19 7 4 6 29 21 25 59 76 75 70 72 79
43 38 34 33 37 37 30 30 35 39 41 41 39 38 35 26 17 23 14 3 2 4 13 9 29 15 22 25 28 34 34 26 14 10 8 11 19 7 2 7 22 49 54 35 17 43 43 53 56 55 62 65 65 69
36 30 31 35 37 29 27 32 37 42 40 38 34 27 21 19 18 24 11 5 18 23 9 12 13 8 28 22 12 15 12 9 13 4 7 10 11 3 9 6 26 33 39 39 37 34 36 42 45 54 57 51 49 47
32 29 36 34 28 26 29 33 38 40 38 35 30 25 22 19 28 32 22 19 24 26 10 7 11 17 17 16 12 6 4 14 7 7 11 7 11 15 8 10 24 25 29 29 44 41 47 46 46 44 42 40 40 38
31 33 33 27 25 29 32 34 37 39 33 29 21 15 12 10 9 7 7 15 17 11 9 5 8 10 32 25 16 7 7 4 2 6 4 7 10 11 15 20 6 12 30 35 36 37 37 39 38 34 32 30 29 25
31 30 27 24 26 29 29 32 35 30 26 16 11 6 5 2 11 16 7 8 13 9 11 7 8 8 17 19 8 11 9 3 2 2 8 10 7 23 27 26 30 27 27 28 31 29 28 30 28 27 27 23 20 16
30 26 23 25 25 26 28 28 25 22 14 12 9 7 18 25 9 8 7 11 16 10 11 10 12 8 9 6 7 8 6 5 6 3 9 3 7 15 23 27 25 21 24 27 28 28 26 23 21 19 18 16 13 11
24 21 22 24 24 24 24 20 8 14 15 16 22 25 17 7 9 9 7 7 10 5 10 8 9 12 9 7 7 9 6 5 1 9 4 7 10 25 26 27 28 27 27 27 26 26 24 22 19 17 14 13 11 9
20 21 22 23 21 18 10 11 12 16 23 13 6 6 7 8 5 10 10 7 4 2 5 13 12 5 5 11 12 8 5 3 3 4 5 6 29 31 29 29 27 25 25 25 24 21 20 19 18 15 11 11 8 8
18 19 20 20 20 15 12 14 12 15 6 5 8 8 9 8 9 7 5 5 9 16 21 24 16 6 10 7 9 7 1 4 5 3 6 18 36 34 32 29 29 25 23 21 18 15 14 14 15 15 14 10 7 7
15 15 15 11 3 7 13 17 17 8 5 7 8 9 10 13 11 11 15 17 15 20 21 17 12 12 8 9 6 8 5 6 6 5 8 33 36 34 34 30 27 23 19 16 14 13 14 13 11 11 12 10 8 12
10 11 8 11 17 17 17 18 10 10 7 9 13 14 19 10 16 18 16 12 7 13 16 11 7 5 10 6 7 7 4 6 6 8 34 41 37 34 32 27 23 20 17 15 13 12 12 11 10 9 10 9 9 11
7 5 17 24 19 17 15 6 8 10 11 9 16 22 25 19 20 23 13 10 6 9 6 7 6 3 12 7 3 6 5 8 14 21 30 34 39 35 30 27 24 20 18 15 12 12 13 12 11 9 8 7 8 10
4 14 25 27 18 11 5 11 8 11 17 26 20 27 21 22 20 20 19 11 3 2 5 4 11 7 5 8 5 8 9 14 22 34 39 39 36 32 27 26 23 19 17 13 10 10 10 8 7 6 4 5 6 8
17 25 23 15 10 4 6 9 12 10 16 20 15 24 20 24 21 19 16 10 10 10 4 5 6 5 7 7 10 13 8 16 25 31 32 34 32 27 26 24 20 18 15 10 7 6 9 9 6 4 4 4 6 7
10 11 7 10 8 6 7 9 12 11 10 9 16 25 24 19 16 15 19 21 22 10 11 7 6 9 7 9 2 3 10 19 26 30 31 31 28 26 24 20 16 18 16 14 8 9 6 6 7 7 7 7 10 11
12 10 8 10 11 13 10 8 11 14 16 15 17 16 19 12 16 10 13 17 16 4 5 10 10 21 14 12 10 9 17 23 17 19 25 28 25 24 22 18 18 16 11 12 18 8 7 8 8 8 11 12 12 12
9 10 7 10 9 9 12 16 13 13 11 20 24 20 9 9 14 14 12 18 7 8 7 8 9 11 11 7 17 15 24 20 17 21 21 23 25 22 21 17 17 15 9 6 8 11 10 10 11 14 14 17 17 19
8 8 7 8 9 8 13 12 12 9 7 8 9 7 6 10 12 14 1 6 2 4 6 10 10 7 11 17 20 19 16 16 17 19 20 19 19 18 18 17 16 15 12 8 9 10 15 12 14 16 16 18 15 17
7 5 6 7 13 9 7 8 12 9 10 11 7 9 9 8 5 5 2 4 4 6 9 11 7 14 17 16 17 16 16 16 17 18 15 17 18 16 16 17 16 15 13 12 13 12 16 15 14 15 16 17 15 12
5 8 7 10 11 9 7 8 11 8 9 9 8 10 4 7 4 2 4 4 13 16 14 10 4 12 12 12 22 19 13 15 17 18 16 16 19 20 19 18 17 17 17 22 16 17 17 17 16 15 16 16 16 14
8 12 12 10 7 10 7 6 5 8 8 8 11 7 3 6 6 3 5 10 12 16 18 10 5 6 15 18 17 14 12 11 14 14 14 17 20 21 21 20 18 17 21 18 21 23 23 21 19 20 18 17 20 18
7 10 16 16 11 13 9 13 21 11 10 7 4 3 4 5 6 7 15 12 9 11 25 12 8 10 15 14 13 12 11 15 13 14 14 16 17 18 18 18 16 13 22 27 24 26 28 27 25 22 18 18 19 18
12 9 15 11 15 14 13 9 7 6 4 5 5 7 6 8 6 6 6 7 8 12 20 18 6 9 8 14 14 7 9 11 12 16 17 17 16 15 13 11 13 16 14 21 23 26 29 29 28 27 25 22 21 20
11 13 14 16 17 11 10 8 5 6 8 9 5 5 5 7 13 9 5 7 10 15 17 13 25 17 19 29 23 12 12 9 7 17 27 26 21 15 14 13 9 10 15 18 25 26 29 29 28 29 28 25 22 22
15 19 11 13 12 11 13 5 6 6 6 4 2 2 11 13 8 8 8 9 10 12 14 16 16 15 16 12 17 16 11 6 6 8 21 20 14 10 7 7 7 8 12 18 21 26 33 32 32 30 30 27 26 26
3 9 15 17 20 14 4 6 9 6 12 12 11 12 12 13 10 9 13 13 10 10 10 10 11 12 11 12 10 6 5 4 8 10 8 11 9 6 6 1 9 11 10 17 22 24 30 34 32 32 33 32 30 29
17 18 13 9 8 4 5 5 8 5 3 9 13 20 24 22 11 9 5 4 2 3 5 6 7 8 6 6 5 4 5 4 7 9 7 6 11 12 7 3 8 16 19 17 25 28 31 33 32 34 33 35 33 33
18 17 17 12 11 9 12 13 9 9 6 7 13 15 10 8 7 6 5 7 10 4 3 2 2 5 12 12 9 7 8 6 16 18 22 22 20 17 18 19 17 14 18 20 21 30 34 37 35 33 34 34 35 34
Wind_Direction_850mb
306 308 308 303 307 311 312 314 314 311 309 309 311 315 314 311 303 291 290 285 271 269 283 287 284 271 282 283 280 285 322 43 292 289 293 336 278 279 1 34 17 174 200 207 213 250 232 349 331 337 354 315 289 136
305 306 306 306 304 308 311 314 314 310 305 308 312 312 313 307 299 281 286 289 290 274 271 290 290 274 267 268 271 278 244 302 283 289 323 305 295 300 321 53 345 240 340 64 24 17 311 322 314 19 37 45 79 111
304 303 305 304 302 305 309 314 311 308 306 312 314 315 313 315 307 271 284 292 297 291 300 284 296 291 275 265 256 242 265 228 228 254 311 287 282 285 321 38 37 17 69 80 166 342 16 19 48 56 65 70 86 100
303 301 300 300 303 303 307 308 307 308 310 309 312 312 308 307 302 284 285 286 282 280 282 292 294 298 290 273 257 248 256 251 264 293 236 267 274 278 338 107 29 4 51 105 89 241 1 42 70 78 74 83 91 91
302 298 296 297 305 308 307 303 309 310 309 312 311 307 306 303 302 296 287 277 268 250 284 298 308 332 287 282 268 262 259 254 242 263 237 248 263 276 329 55 4 342 332 73 86 72 80 74 76 80 82 84 91 102
298 296 292 299 298 302 300 303 310 311 311 313 313 309 307 305 304 319 312 74 357 319 287 294 314 303 310 298 281 269 258 244 221 232 248 254 250 237 344 62 6 77 72 94 90 94 79 92 85 88 89 88 90 93
296 293 293 295 298 294 298 308 311 312 315 315 315 309 301 288 271 255 247 259 314 308 285 289 282 303 310 310 294 262 235 200 232 258 257 267 289 189 43 45 77 71 96 107 96 100 101 89 92 92 93 96 94 92
284 290 292 295 288 292 304 307 309 312 317 316 313 305 295 271 265 264 274 269 258 264 259 275 285 298 341 321 318 274 216 162 18 281 264 279 324 90 84 86 104 104 82 80 104 96 96 98 95 93 94 96 94 94
279 282 287 285 285 296 303 309 311 316 321 319 317 307 289 240 229 260 284 290 286 228 270 256 306 319 339 322 308 319 307 95 287 254 359 345 33 47 135 120 87 72 107 107 102 100 97 90 88 85 85 85 85 82
273 281 280 278 290 297 308 311 315 326 334 346 352 290 269 225 282 295 270 211 212 224 233 261 266 271 322 327 299 2 288 175 255 2 26 90 68 74 82 93 103 102 105 111 109 100 92 85 82 75 69 67 67 65
275 271 273 285 295 304 308 313 321 343 18 350 321 301 304 288 268 230 225 222 187 209 210 242 248 247 278 275 312 302 295 281 167 218 144 97 118 112 108 106 100 91 92 88 89 88 86 87 85 79 69 61 52 44
258 264 277 289 298 304 309 314 321 350 319 306 294 294 293 278 229 242 230 232 221 198 189 229 281 229 255 253 272 273 261 241 99 173 211 107 131 134 127 117 109 104 101 96 92 89 83 75 66 60 52 46 39 38
257 273 283 291 296 299 315 295 298 317 329 295 294 259 239 234 246 231 208 217 218 248 182 311 326 277 248 233 249 264 260 313 282 212 99 114 144 139 132 128 118 112 107 102 96 87 75 60 51 52 41 31 18 2
263 276 285 293 290 284 272 284 309 331 3 264 255 242 236 207 240 243 271 288 304 329 323 315 309 226 245 247 237 264 168 237 237 153 76 136 155 145 143 137 130 124 120 111 100 86 68 57 49 48 43 23 18 36
274 285 300 309 306 239 279 286 286 306 279 259 254 248 235 242 281 300 315 308 301 312 320 310 285 245 260 257 246 283 235 212 55 68 113 137 142 151 145 145 136 128 118 104 88 64 44 32 31 25 23 24 32 14
282 310 277 273 288 284 292 312 291 209 245 240 237 258 266 262 274 274 281 295 317 322 306 265 271 238 252 240 241 252 301 40 72 85 115 134 147 148 146 139 137 132 124 113 97 69 50 47 49 50 38 50 56 43
295 236 270 305 315 315 303 280 199 215 245 224 236 240 266 265 269 279 287 308 323 331 311 334 260 255 291 259 233 16 26 77 92 116 130 143 149 149 144 141 137 131 122 106 85 62 49 43 35 22 34 56 53 44
224 279 291 297 308 323 267 202 229 239 233 239 252 250 235 249 256 265 277 277 301 298 352 304 313 284 276 296 24 34 44 75 84 111 129 142 146 143 141 141 140 130 122 117 90 59 47 35 34 21 67 78 78 69
238 243 270 265 277 271 244 223 215 253 256 266 252 267 259 263 252 253 261 245 238 212 211 216 257 257 286 13 23 49 22 108 120 126 134 141 142 142 143 140 137 140 135 119 67 78 86 50 50 70 95 106 109 97
281 299 267 223 217 237 250 238 229 252 270 265 267 247 252 257 249 253 255 256 231 204 204 227 238 277 296 266 5 102 153 142 134 138 141 149 151 148 146 148 153 158 154 135 111 93 84 84 60 82 107 112 122 117
321 269 272 250 218 230 267 270 247 255 282 270 268 264 257 280 270 264 256 215 207 243 258 237 271 291 293 236 253 202 173 149 153 152 159 163 167 162 164 160 162 164 171 156 137 102 116 87 104 120 107 110 118 131
254 264 241 236 227 241 251 239 250 289 276 262 268 257 263 279 270 208 206 204 206 232 259 275 296 305 309 154 144 149 130 135 135 136 137 146 160 162 171 165 169 169 174 141 104 115 123 104 105 115 110 109 111 111
251 219 233 226 230 239 261 227 246 232 246 245 234 225 136 248 195 160 122 7 192 246 254 302 286 283 131 122 120 131 132 124 124 133 145 152 154 164 162 167 170 164 150 138 115 108 138 130 119 117 121 111 109 110
206 233 234 229 212 262 255 230 232 243 263 258 237 239 204 195 99 52 87 246 190 228 264 324 232 171 158 148 128 135 126 135 148 143 146 149 146 153 161 164 164 163 151 155 146 136 141 141 143 141 126 130 125 121
244 216 212 241 230 242 237 248 223 230 247 237 242 251 155 145 99 244 154 99 57 26 13 353 320 204 195 163 155 141 129 160 161 159 153 155 152 152 155 159 163 171 171 163 167 157 146 160 147 150 160 152 146 146
243 209 202 218 222 225 235 261 242 247 287 264 224 235 149 167 153 193 80 88 71 42 18 354 319 323 203 173 159 161 161 156 147 151 162 165 164 165 165 169 175 184 193 179 175 176 172 160 154 162 165 165 166 160
251 239 216 232 246 274 268 263 249 247 240 256 322 269 236 186 117 63 109 94 109 52 20 53 117 114 145 132 142 147 174 173 181 179 163 167 163 169 172 178 191 198 194 193 193 190 186 185 185 182 177 178 177 171
245 275 249 253 218 254 269 276 260 246 280 0 329 17 33 28 62 57 62 64 118 102 65 53 103 113 163 158 112 93 168 175 163 164 160 161 169 173 171 168 168 184 193 192 197 196 194 191 189 187 186 187 187 181
234 233 238 250 228 237 240 245 273 36 27 20 17 47 69 86 99 74 59 63 88 131 87 76 72 99 90 77 97 96 83 93 172 191 190 180 174 171 193 204 210 197 196 204 195 192 196 193 193 192 187 185 185 181
242 208 225 242 213 239 237 298 324 339 305 337 324 297 109 111 101 100 100 92 96 95 85 80 73 73 69 83 78 64 62 70 164 192 139 129 143 151 160 176 192 206 199 199 191 191 197 191 193 192 190 190 190 188
223 239 243 245 249 247 240 308 304 276 265 260 223 191 149 142 123 95 105 96 101 107 99 87 77 75 75 68 67 102 98 76 88 107 125 151 98 82 41 213 225 220 215 203 199 198 192 189 195 196 199 200 203 201
204 207 230 254 263 234 199 19 340 348 24 154 171 168 167 158 135 134 109 82 124 112 85 56 47 45 37 47 44 52 77 356 298 250 232 262 251 229 232 307 312 225 211 221 213 211 206 198 202 203 206 207 209 211
201 229 242 271 254 235 197 196 217 194 197 143 138 145 137 142 116 168 149 133 137 106 93 18 357 318 293 273 282 302 293 294 281 263 252 251 251 250 247 247 246 232 222 214 227 222 216 213 213 213 214 214 213 214